Weather History for Racine, WI

Change the Weather History Date:

Wednesday, February 6, 2013

  Actual Average Record
Temperature  
Mean Temperature 20 °F -  
Max Temperature 34 °F 28 °F 50 °F (1964)
Min Temperature 6 °F 14 °F -11 °F (1982)
Degree Days  
Heating Degree Days 45    
Moisture  
Dew Point 18 °F    
Average Humidity 77    
Maximum Humidity 92    
Minimum Humidity 61    
Precipitation  
Precipitation 0.00 in - - ()
Sea Level Pressure  
Sea Level Pressure 30.20 in    
Wind  
Wind Speed 5 mph (SSW)    
Max Wind Speed 13 mph    
Max Gust Speed -    
Visibility 8 miles    
Events      
Averages and records for this station are not official NWS values.
T = Trace of Precipitation, MM = Missing Value Source: NWS Daily Summary

Daily Weather History Graph

Daily Weather History Graph

Search for Another Location

Airport:

Trip Planner

Search our weather history database for the weather conditions in past years. The results will help you decide how hot, cold, wet, or windy it might be!

Date:

Astronomy

Feb. 06, 2013 Rise Set
Actual Time 6:59 AM CST 5:11 PM CST
Civil Twilight 6:30 AM CST 5:41 PM CST
Nautical Twilight 5:56 AM CST 6:14 PM CST
Astronomical Twilight 5:23 AM CST 6:47 PM CST
Moon 3:45 AM CST (2/6) 1:26 PM CST (2/6)
Length of Visible Light 11h 10m
Length of Day
10h 11m
Waning Crescent, 17% of the Moon is Illuminated
Feb 6
Waning Crescent
Feb 10
New
Feb 17
First Quarter
Feb 25
Full
Mar 4
Last Quarter

Hourly Weather History & Observations

Time (CST) Temp. Windchill Dew Point Humidity Pressure Visibility Wind Dir Wind Speed Gust Speed Precip Events Conditions
1:05 AM 21.2 °F 16.4 °F 12.2 °F 68% 30.12 in 10.0 mi WNW 3.5 mph - N/A   Scattered Clouds
1:53 AM 19.0 °F 12.3 °F 10.9 °F 71% 30.17 in 10.0 mi WNW 4.6 mph - N/A   Clear
2:53 AM 17.1 °F 11.7 °F 10.9 °F 77% 30.17 in 10.0 mi West 3.5 mph - N/A   Clear
3:53 AM 15.1 °F 6.4 °F 10.0 °F 80% 30.19 in 10.0 mi West 5.8 mph - N/A   Clear
4:53 AM 7.0 °F 0.1 °F 5.0 °F 92% 30.21 in 7.0 mi West 3.5 mph - N/A   Clear
5:53 AM 10.0 °F - 6.1 °F 84% 30.21 in 6.0 mi Calm Calm - N/A   Clear
6:53 AM 6.1 °F - 3.9 °F 91% 30.23 in 6.0 mi Calm Calm - N/A   Clear
7:53 AM 7.0 °F - 5.0 °F 92% 30.24 in 5.0 mi Calm Calm - N/A   Clear
8:53 AM 17.1 °F - 12.9 °F 84% 30.26 in 6.0 mi Calm Calm - N/A   Clear
9:53 AM 23.0 °F 14.7 °F 14.0 °F 68% 30.26 in 10.0 mi SSW 6.9 mph - N/A   Clear
10:53 AM 26.1 °F 21.9 °F 15.1 °F 63% 30.27 in 10.0 mi SW 3.5 mph - N/A   Clear
11:53 AM 28.0 °F 20.8 °F 17.1 °F 63% 30.24 in 10.0 mi SSW 6.9 mph - N/A   Clear
12:53 PM 30.0 °F 22.4 °F 19.0 °F 64% 30.22 in 10.0 mi SSW 8.1 mph - N/A   Clear
1:53 PM 32.0 °F 27.5 °F 19.9 °F 61% 30.21 in 9.0 mi SSE 4.6 mph - N/A   Clear
2:53 PM 32.0 °F 25.6 °F 23.0 °F 69% 30.20 in 7.0 mi SSE 6.9 mph - N/A   Scattered Clouds
3:53 PM 32.0 °F 25.6 °F 24.1 °F 73% 30.20 in 6.0 mi SSE 6.9 mph - N/A   Haze
4:53 PM 32.0 °F 27.5 °F 24.1 °F 73% 30.21 in 6.0 mi SSE 4.6 mph - N/A   Haze
5:53 PM 30.9 °F 27.5 °F 25.0 °F 79% 30.19 in 7.0 mi SSE 3.5 mph - N/A   Clear
6:53 PM 32.0 °F 25.6 °F 27.0 °F 82% 30.17 in 7.0 mi SSE 6.9 mph - N/A   Scattered Clouds
7:53 PM 34.0 °F 26.0 °F 28.0 °F 79% 30.17 in 7.0 mi South 10.4 mph - N/A   Overcast
8:53 PM 34.0 °F 25.5 °F 28.0 °F 79% 30.17 in 7.0 mi South 11.5 mph - N/A   Overcast
9:53 PM 33.1 °F 23.9 °F 28.0 °F 82% 30.14 in 6.0 mi South 12.7 mph - N/A   Haze
10:53 PM 33.1 °F 24.9 °F 28.0 °F 82% 30.14 in 6.0 mi South 10.4 mph - N/A   Haze
11:53 PM 33.1 °F 24.4 °F 28.0 °F 82% 30.14 in 5.0 mi SSE 11.5 mph - N/A   Haze